Location: Boitzum
(52.1496°N, 9.6943°E)
Time: 00:46:29
(UTC+00:00)

Cosmos 44 Rocket - Pass Details

Date: 13 January 2026
Orbit: 633 x 745 km, 65.1° (Epoch: 18 February)

Event Time Altitude Azimuth Distance (km) Brightness Sun altitude
Exits shadow 04:54:53 29° 341° (NNW) 1,318 4.5 -22.1°
Drops below altitude 10° 04:59:00 10° 34° (NE) 2,237 6.2 -21.4°
Sets 05:01:42 0° 46° (NE) 3,175 7.2 -21.0°
